Regional Weather Roundup
Issued by NWS Portland, ME

Current Version | Previous Version | Text Only | Print | Product List | Glossary Off
Versions: 1 2 3 4 5 6 7 8 9 10 11 12 13 14 15 16 17 18 19 20 21 22 23 24 25 26 27 28 29 30 31 32 33 34 35 36 37 38 39 40 41 42 43 44 45 46 47 48 49 50
963 ASUS41 KGYX 220105 RWRGYX WEATHER ROUNDUP FOR MAINE AND NEW HAMPSHIRE NATIONAL WEATHER SERVICE GRAY ME 900 PM EDT TUE AUG 21 2018 MEZ002-005-006-010-012-015-018-020-021-024-026-027-029-220200- MAINE CITY SKY/WX TMP DP RH WIND PRES REMARKS PORTLAND FAIR 64 61 90 SE3 30.03S SANFORD FAIR 58 57 97 CALM 30.04R BAR HARBOR FAIR 60 57 89 S3 30.06R WISCASSET CLOUDY 64 61 90 CALM 30.05F ROCKLAND CLOUDY 63 61 93 SE5 30.05S FRYEBURG FAIR 64 59 83 SE3 30.02S LEWISTONAUBURN FAIR 62 58 86 S3 30.03F AUGUSTA MOCLDY 62 58 86 SE9 30.03F WATERVILLE FAIR 64 57 78 VRB5 30.01F BANGOR MOCLDY 64 58 80 S8 30.04S GREENVILLE N/A 62 57 83 SE7 30.01F MILLINOCKET FAIR 65 58 78 CALM 30.03S HOULTON FAIR 64 58 80 SE7 30.01S PRESQUE ISLE FAIR 63 57 81 CALM 30.02S FRENCHVILLE FAIR 67 55 65 SE8 30.00S CARIBOU FAIR 65 55 70 S5 30.00S $$ NHZ002-005-008-009-011-012-014-220200- NEW HAMPSHIRE CITY SKY/WX TMP DP RH WIND PRES REMARKS PORTSMOUTH MOCLDY 64 60 88 CALM 30.01S ROCHESTER FAIR 63 61 93 CALM 30.03S NASHUA CLOUDY 67 64 90 SE7 30.02R MANCHESTER MOCLDY 66 62 87 CALM 30.01R CONCORD CLOUDY 65 61 87 SE6 30.01S LACONIA CLOUDY 65 60 84 CALM 30.01S PLYMOUTH CLOUDY 67 60 78 SW3 30.00S BERLIN FAIR 65 60 84 CALM 29.99S WHITEFIELD FAIR 68 57 68 S10G16 29.97F JAFFREY CLOUDY 67 63 87 CALM 30.02S KEENE CLOUDY N/A N/A N/A S6 29.98F LEBANON CLOUDY 69 59 70 S6 29.96S MT WASHINGTON PTCLDY 50 48 93 SW18 N/A $$ VTZ005-007-008-220200- VERMONT CITY SKY/WX TMP DP RH WIND PRES REMARKS ST JOHNSBURY N/A 68 58 70 MISG 29.94S MONTPELIER MOCLDY 66 60 81 S10 29.99S BURLINGTON MOCLDY 75 59 57 S10 29.87F $$ MAZ007-012-024-CTZ003-RIZ002-NYZ038-NYZ072-220200- SOUTHERN NEW ENGLAND AND NY CITY SKY/WX TMP DP RH WIND PRES REMARKS BOSTON FAIR 68 63 84 SE9 30.01F WORCESTER CLOUDY 66 62 87 SE9 30.03R NANTUCKET CLOUDY 66 66 100 NE7 30.01S PROVIDENCE CLOUDY 69 62 78 E8 30.02R HARTFORD FAIR 69 63 81 S14 29.99R ALBANY CLOUDY 75 60 59 SE10G21 29.91S NEW YORK CITY MOCLDY 74 66 76 SE13 29.96R $$ ANZ081-ANZ082-ANZ150-NHZ014-MEZ023>029-220200- COASTAL MARINE OBSERVATIONS STATION/POSITION TIME TEMP WIND PRES WAVE AIR SEA DIR/SP/G HT/PER (UTC) (F) (DEG/KT/KT) (MB) (FT/S) JEFFREYS LEDGE 0036 70 N/A 5/10 $$ .............KEY.............. WCI - WIND CHILL TC - TEMPERATURE IN CELSIUS VSB - VISIBILITY IN MILES HX - HEAT INDEX FAIR- INDICATES FEW OR NO CLOUDS BELOW 12,000 FT, WITH NO SIGNIFICANT WEATHER AND/OR OBSTRUCTIONS TO VISIBILITY.

USA.gov is the U.S. government's official web portal to all federal, state and local government web resources and services.